Regional Weather Roundup
Issued by NWS San Angelo, TX

Home | Current Version | Previous Version | Text Only | Print | Product List | Glossary On
Versions: 1 2 3 4 5 6 7 8 9 10 11 12 13 14 15 16 17 18 19 20 21 22 23 24 25 26 27 28 29 30 31 32 33 34 35 36 37 38 39 40 41 42 43 44 45 46 47 48 49 50
000
ASUS44 KSJT 251510
RWRSJT
WEST CENTRAL TEXAS REGIONAL WEATHER ROUNDUP
NATIONAL WEATHER SERVICE SAN ANGELO TX
1000 AM CDT SAT OCT 25 2014

NOTE: "FAIR" INDICATES FEW OR NO CLOUDS BELOW 12,000 FEET WITH NO
SIGNIFICANT WEATHER AND/OR OBSTRUCTIONS TO VISIBILITY.

TXZ049-054-064>066-071>073-076>078-098-099-113-114-127-128-139-140-
154-155-168>170-251600
...LOCATIONS ACROSS WEST CENTRAL TEXAS...

CITY           SKY/WX    TMP DP  RH WIND       PRES   REMARKS
SAN ANGELO     SUNNY     68  58  70 CALM      30.20R
ABILENE        SUNNY     73  59  61 SW7       30.18R
DYESS AFB      SUNNY     76  59  55 SW9       30.17R
JUNCTION       SUNNY     69  59  70 SW12      30.21R
SWEETWATER     SUNNY     71  60  69 SW17      30.23R
BROWNWOOD      SUNNY     70  59  68 S3        30.20R
COLEMAN        SUNNY     73  61  66 W9        30.19R
SONORA         SUNNY     68  59  73 S8        30.26S
OZONA          FAIR      64  59  82 S8        30.25R
BRADY          SUNNY     72  57  60 SW9       30.19S
$$

TEXAS PANHANDLE/OKLAHOMA PANHANDLE

CITY           SKY/WX    TMP DP  RH WIND       PRES   REMARKS
AMARILLO       SUNNY     65  51  60 SW15      30.19R
BORGER         SUNNY     64  48  56 CALM      30.16R
CANADIAN       SUNNY     57  53  86 CALM      30.13R
DALHART        SUNNY     58  43  57 SW3       30.20R
DUMAS            N/A     65  50  58 SW9       30.18R
GUYMON         NOT AVBL
HEREFORD       SUNNY     62  53  73 S8        30.22R
PAMPA          SUNNY     70  52  52 SW12      30.18R
PERRYTON       SUNNY     64  48  56 SW7       30.14S
$$

SOUTHERN PANHANDLE/SOUTH PLAINS/ROLLING PLAINS

CITY           SKY/WX    TMP DP  RH WIND       PRES   REMARKS
LUBBOCK        SUNNY     65  57  75 SW12      30.21R
SNYDER         SUNNY     65  60  84 S5        30.21R
CHILDRESS      SUNNY     72  54  53 W7        30.15R
SEMINOLE       SUNNY     62  59  88 SW5       30.23R
$$

PERMIAN BASIN

CITY           SKY/WX    TMP DP  RH WIND       PRES   REMARKS
MIDLAND        SUNNY     69  59  70 S9        30.20R
ODESSA         SUNNY     68  59  73 SW12      30.22R
WINK           SUNNY     66  58  75 S7        30.19R
$$

FAR WEST/SOUTHWEST MOUNTAINS/TRANS PECOS

CITY           SKY/WX    TMP DP  RH WIND       PRES   REMARKS
ALPINE         SUNNY     70  52  53 SW5       30.35R
DRYDEN           N/A     68  62  81 CALM      30.19R
EL PASO        SUNNY     61  49  64 N5        30.25R
FORT STOCKTON  SUNNY     71  56  58 S7        30.21R
GUADALUPE PASS SUNNY     60  45  57 SW9       30.34R
MARFA          SUNNY     63  54  72 CALM      30.34R
PECOS          SUNNY     57  56  96 CALM      30.20R FOG
$$

DALLAS/FORT WORTH METROPLEX

CITY           SKY/WX    TMP DP  RH WIND       PRES   REMARKS
DFW AIRPORT    SUNNY     72  59  63 S10       30.15R
FTW MEACHAM    SUNNY     72  60  66 S9        30.14R
DAL-EXECUTIVE  SUNNY     74  59  59 VRB5      30.15R
GRAND PRAIRIE  SUNNY     72  61  68 MISG        N/A
ADDISON        SUNNY     72  57  60 S8        30.15R
MESQUITE       SUNNY     72  59  64 S8        30.16R
LANCASTER      SUNNY     70  57  64 S7        30.17S
$$

NORTH CENTRAL TEXAS

CITY           SKY/WX    TMP DP  RH WIND       PRES   REMARKS
SHRMAN/DENISON SUNNY     72  62  71 SW12      30.15R
GAINESVILLE    SUNNY     68  61  78 S6        30.16R
BRIDGEPORT     SUNNY     73  62  68 SW3       30.16R
DENTON         SUNNY     71  60  68 S9        30.14R
WAXAHACHIE     SUNNY     72  61  67 S9        30.18S
GRANBURY       SUNNY     72  61  68 E5        30.17S
$$

WESTERN NORTH TEXAS

CITY           SKY/WX    TMP DP  RH WIND       PRES   REMARKS
WICHITA FALLS  SUNNY     71  58  63 SW9       30.12R
VERNON         SUNNY     73  55  53 SW7       30.13R
BRECKENRIDGE   SUNNY     74  58  57 SW7       30.16R HAZE
COMANCHE       SUNNY     74  60  61 W9G17     30.18R
$$

CENTRAL AND SOUTH CENTRAL TEXAS

CITY           SKY/WX    TMP DP  RH WIND       PRES   REMARKS
AUSTIN/BERGSTM SUNNY     70  61  73 SE3       30.19R
WACO           SUNNY     73  60  63 S7        30.18R
HILLSBORO      SUNNY     74  58  56 S10       30.18R
TEMPLE         SUNNY     70  57  64 S7        30.18R
KILLEEN-GRAY   SUNNY     71  59  65 S8        30.19R
FORT HOOD      SUNNY     74  60  61 SE5       30.18R
GEORGETOWN     SUNNY     72  61  68 S5        30.18S
LAGO VISTA     FAIR      72  58  62 SW6       30.21R
SAN MARCOS     SUNNY     70  57  64 CALM      30.20R
NEW BRAUNFELS  SUNNY     74  58  57 W7        30.18R
RANDOLPH AFB   SUNNY     74  56  52 SW6       30.20R
SAN ANTONIO    SUNNY     74  57  55 W7        30.20R
STINSON        SUNNY     74  56  53 W7        30.18R
PLEASANTON     NOT AVBL
LA GRANGE      SUNNY     73  63  72 W5        30.17S
GIDDINGS       SUNNY     73  60  62 W6        30.23R
$$

EAST TEXAS

CITY           SKY/WX    TMP DP  RH WIND       PRES   REMARKS
PARIS          SUNNY     68  55  64 SW8       30.16S
CLARKSVILLE    NOT AVBL
TYLER          SUNNY     71  59  65 SW7       30.18R
LONGVIEW       SUNNY     70  59  68 SW7       30.18R
PALESTINE      SUNNY     69  61  76 S3        30.21R
NACOGDOCHES    SUNNY     66  57  72 W5        30.20S
$$

TEXAS HILL COUNTRY AND EDWARDS PLATEAU

CITY           SKY/WX    TMP DP  RH WIND       PRES   REMARKS
LLANO          NOT AVBL
HORSESHOE BAY  FAIR      73  58  57 CALM      30.20R
KERRVILLE      SUNNY     69  59  71 CALM      30.22R
FREDERICKSBRG  SUNNY     70  57  65 SW8       30.21R
ROCKSPRINGS    SUNNY     70  59  68 S9        30.25R
HONDO          SUNNY     70  57  63 W5        30.22R
UVALDE         SUNNY     73  62  68 CALM      30.21R
DEL RIO        SUNNY     70  62  76 E7        30.17R
$$

SOUTHEAST TEXAS

CITY           SKY/WX    TMP DP  RH WIND       PRES   REMARKS
COLLEGE STN    SUNNY     70  61  73 SW3       30.19R
CALDWELL       SUNNY     70  63  78 SW6       30.22S
CROCKETT       SUNNY     70  63  78 SW3       30.22S
BRENHAM        SUNNY     71  63  75 CALM      30.20R
HUNTSVILLE     SUNNY     72  60  66 W5        30.20R
CONROE         SUNNY     70  60  70 N3        30.20R
HOUSTON BUSH   SUNNY     70  57  63 N3        30.19R
HOUSTON HOBBY  SUNNY     72  56  57 N3        30.18R
PERLAND        SUNNY     72  58  61 CALM      30.20R
WHARTON        SUNNY     71  59  65 CALM      30.20R
$$

THE UPPER TEXAS COAST

CITY           SKY/WX    TMP DP  RH WIND       PRES   REMARKS
ORANGE         SUNNY     66  58  74 CALM      30.20R
PORT ARTHUR    SUNNY     71  55  56 NE3       30.18R
GALVESTON      SUNNY     74  58  57 NE7       30.18R
ANGLETON       SUNNY     68  60  75 N3        30.18R
BAY CITY         N/A     69  61  76 N3        30.19R
$$

TEXAS COASTAL BEND, RIO GRANDE PLAINS DEEP SOUTH TEXAS

CITY           SKY/WX    TMP DP  RH WIND       PRES   REMARKS
VICTORIA       SUNNY     73  63  70 NW5       30.19R
BEEVILLE       FAIR      74  61  62 CALM      30.18R
ROCKPORT       SUNNY     73  64  73 N6        30.18R
PORT ARANSAS   SUNNY     72  64  78 N6        30.17R
PORT LAVACA    SUNNY     71  65  79 N6        30.19R
CORPUS CHRISTI SUNNY     72  64  76 N5        30.18R
KINGSVILLE NAS SUNNY     75  66  73 CALM      30.18R
COTULLA        SUNNY     74  60  61 SW5       30.18R
LAREDO         SUNNY     76  64  66 CALM      30.20R
BROWNSVILLE    SUNNY     76  67  73 NW5       30.17R
PORT ISABEL    SUNNY     75  66  73 NW5       30.17R
HEBBRONVILLE   SUNNY     74  60  60 CALM      30.19R
MCALLEN        SUNNY     72  66  81 CALM      30.18R
WESLACO        SUNNY     73  65  76 CALM      30.18R
FALFURRIAS     SUNNY     69  64  83 CALM      30.17R
EDINBURG       SUNNY     73  65  76 CALM      30.18R
$$



USA.gov is the U.S. government's official web portal to all federal, state and local government web resources and services.